• Em Portugal
  • Lista de países
  • Para 7 dias
  • Temperatura da água
  • Mapas de satélite
  • Mapa do tempo
  • Widgets de tempo
  • user-avatar
    Iniciar Sessão

    Previsão horária em Robertsport

    Hoje, 15 Dezembro, Sexta-feira

    Tempo Temperatura Precipitação Vento Pressão Humidade
    00:00 +27°C° 0,2 mm 2 m/s 756 mmHg 90%
    01:00 +26°C° 0,2 mm 2 m/s 755 mmHg 91%
    02:00 +26°C° 0,2 mm 2 m/s 755 mmHg 92%
    03:00 +26°C° 0,4 mm 1 m/s 755 mmHg 93%
    04:00 +26°C° 0,4 mm 1 m/s 755 mmHg 94%
    05:00 +26°C° 0 mm 1 m/s 755 mmHg 95%
    06:00 +27°C° 0,2 mm 1 m/s 755 mmHg 90%
    07:00 +28°C° 0,2 mm 1 m/s 756 mmHg 86%
    08:00 +29°C° 0,2 mm 1 m/s 756 mmHg 81%
    09:00 +30°C° 0,4 mm 1 m/s 756 mmHg 76%
    10:00 +31°C° 0,4 mm 1 m/s 755 mmHg 71%
    11:00 +33°C° 0 mm 1 m/s 755 mmHg 64%
    12:00 +34°C° 0,6 mm 2 m/s 755 mmHg 65%
    13:00 +32°C° 0,6 mm 2 m/s 754 mmHg 67%
    14:00 +32°C° 0,6 mm 2 m/s 754 mmHg 68%
    15:00 +31°C° 0,6 mm 2 m/s 754 mmHg 73%
    16:00 +30°C° 0,6 mm 2 m/s 754 mmHg 78%
    17:00 +29°C° 0,6 mm 2 m/s 754 mmHg 82%
    18:00 +28°C° 0 mm 2 m/s 754 mmHg 85%
    19:00 +27°C° 0 mm 2 m/s 755 mmHg 88%
    20:00 +27°C° 0 mm 2 m/s 755 mmHg 91%
    21:00 +27°C° 0 mm 2 m/s 755 mmHg 91%
    22:00 +26°C° 0 mm 2 m/s 755 mmHg 92%
    23:00 +26°C° 0 mm 2 m/s 756 mmHg 92%

    Amanhã, 16 Dezembro, Sábado

    Tempo Temperatura Precipitação Vento Pressão Humidade
    00:00 +26°C° 0,1 mm 2 m/s 755 mmHg 93%
    01:00 +26°C° 0,1 mm 2 m/s 755 mmHg 93%
    02:00 +26°C° 0,1 mm 1 m/s 755 mmHg 94%
    03:00 +26°C° 1,2 mm 1 m/s 755 mmHg 94%
    04:00 +25°C° 1,2 mm 1 m/s 755 mmHg 94%
    05:00 +25°C° 1,2 mm 1 m/s 755 mmHg 95%
    06:00 +26°C° 0,6 mm 1 m/s 756 mmHg 90%
    07:00 +26°C° 0,6 mm 0 m/s 756 mmHg 85%
    08:00 +27°C° 0,6 mm 0 m/s 757 mmHg 80%
    09:00 +30°C° 0,6 mm 1 m/s 757 mmHg 75%
    10:00 +31°C° 0,6 mm 1 m/s 756 mmHg 69%
    11:00 +32°C° 0,6 mm 2 m/s 756 mmHg 63%
    12:00 +32°C° 0,4 mm 2 m/s 756 mmHg 63%
    13:00 +32°C° 0,4 mm 2 m/s 755 mmHg 63%
    14:00 +33°C° 0,4 mm 3 m/s 754 mmHg 63%
    15:00 +31°C° 0,1 mm 3 m/s 754 mmHg 67%
    16:00 +31°C° 0,1 mm 3 m/s 754 mmHg 71%
    17:00 +30°C° 0,1 mm 3 m/s 754 mmHg 75%
    18:00 +29°C° 0 mm 2 m/s 755 mmHg 79%
    19:00 +28°C° 0 mm 2 m/s 756 mmHg 83%
    20:00 +27°C° 0 mm 2 m/s 756 mmHg 87%
    21:00 +26°C° 0 mm 2 m/s 756 mmHg 88%
    22:00 +26°C° 0 mm 2 m/s 756 mmHg 89%
    23:00 +26°C° 0 mm 2 m/s 756 mmHg 90%

    Depois de amanhã, 17 Dezembro, Domingo

    Tempo Temperatura Precipitação Vento Pressão Humidade
    00:00 +26°C° 0 mm 2 m/s 756 mmHg 91%
    01:00 +26°C° 0 mm 1 m/s 756 mmHg 92%
    02:00 +25°C° 0 mm 1 m/s 755 mmHg 93%
    03:00 +25°C° 0 mm 1 m/s 755 mmHg 93%
    04:00 +25°C° 0 mm 1 m/s 755 mmHg 94%
    05:00 +25°C° 0 mm 2 m/s 755 mmHg 94%
    06:00 +26°C° 0 mm 2 m/s 756 mmHg 90%
    07:00 +27°C° 0 mm 2 m/s 756 mmHg 85%
    08:00 +28°C° 0 mm 2 m/s 756 mmHg 80%
    09:00 +30°C° 0 mm 2 m/s 756 mmHg 74%
    10:00 +31°C° 0 mm 2 m/s 756 mmHg 68%
    11:00 +32°C° 0 mm 2 m/s 756 mmHg 62%
    12:00 +34°C° 0 mm 2 m/s 755 mmHg 57%
    13:00 +35°C° 0 mm 2 m/s 754 mmHg 53%
    14:00 +36°C° 0 mm 2 m/s 753 mmHg 49%
    15:00 +35°C° 0 mm 3 m/s 754 mmHg 56%
    16:00 +33°C° 0 mm 3 m/s 754 mmHg 63%
    17:00 +31°C° 0 mm 3 m/s 754 mmHg 70%
    18:00 +30°C° 0 mm 3 m/s 754 mmHg 76%
    19:00 +29°C° 0 mm 3 m/s 755 mmHg 83%
    20:00 +27°C° 0 mm 3 m/s 756 mmHg 89%
    21:00 +27°C° 0 mm 3 m/s 756 mmHg 90%
    22:00 +27°C° 0 mm 3 m/s 756 mmHg 92%
    23:00 +27°C° 0 mm 2 m/s 755 mmHg 93%

    18 Dezembro, Segunda-feira

    Tempo Temperatura Precipitação Vento Pressão Humidade
    00:00 +26°C° 0 mm 2 m/s 755 mmHg 93%
    01:00 +26°C° 0 mm 2 m/s 754 mmHg 94%
    02:00 +26°C° 0 mm 2 m/s 754 mmHg 95%
    03:00 +26°C° 0 mm 2 m/s 754 mmHg 95%
    04:00 +26°C° 0 mm 2 m/s 754 mmHg 95%
    05:00 +26°C° 0 mm 2 m/s 754 mmHg 95%
    06:00 +26°C° 0 mm 1 m/s 755 mmHg 92%
    07:00 +27°C° 0 mm 1 m/s 756 mmHg 88%
    08:00 +28°C° 0 mm 1 m/s 756 mmHg 84%
    09:00 +29°C° 0,1 mm 2 m/s 756 mmHg 79%
    10:00 +30°C° 0,1 mm 2 m/s 756 mmHg 74%
    11:00 +31°C° 0,1 mm 2 m/s 756 mmHg 69%
    12:00 +33°C° 0,1 mm 3 m/s 755 mmHg 67%
    13:00 +33°C° 0,1 mm 3 m/s 754 mmHg 65%
    14:00 +34°C° 0,1 mm 4 m/s 753 mmHg 63%
    15:00 +33°C° 0 mm 3 m/s 753 mmHg 67%
    16:00 +31°C° 0 mm 3 m/s 753 mmHg 72%
    17:00 +30°C° 0 mm 3 m/s 753 mmHg 76%
    18:00 +29°C° 0 mm 3 m/s 754 mmHg 80%
    19:00 +28°C° 0 mm 3 m/s 754 mmHg 85%
    20:00 +27°C° 0 mm 3 m/s 755 mmHg 90%
    21:00 +27°C° 0 mm 3 m/s 755 mmHg 91%
    22:00 +27°C° 0 mm 3 m/s 755 mmHg 92%
    23:00 +26°C° 0 mm 3 m/s 755 mmHg 93%

    19 Dezembro, Terça-feira

    Tempo Temperatura Precipitação Vento Pressão Humidade
    00:00 +26°C° 0,1 mm 3 m/s 755 mmHg 94%
    01:00 +26°C° 0,1 mm 3 m/s 754 mmHg 94%
    02:00 +26°C° 0,1 mm 3 m/s 754 mmHg 94%
    03:00 +26°C° 0,1 mm 3 m/s 754 mmHg 93%
    04:00 +26°C° 0,1 mm 3 m/s 754 mmHg 93%
    05:00 +26°C° 0,1 mm 3 m/s 754 mmHg 93%
    06:00 +27°C° 0,2 mm 3 m/s 755 mmHg 90%
    07:00 +28°C° 0,2 mm 3 m/s 755 mmHg 87%
    08:00 +29°C° 0,2 mm 3 m/s 756 mmHg 84%
    09:00 +29°C° 0,7 mm 3 m/s 756 mmHg 79%
    10:00 +30°C° 0,7 mm 2 m/s 755 mmHg 75%
    11:00 +31°C° 0,7 mm 2 m/s 755 mmHg 70%
    12:00 +31°C° 0,4 mm 3 m/s 755 mmHg 70%
    13:00 +31°C° 0,4 mm 3 m/s 754 mmHg 69%
    14:00 +31°C° 0,4 mm 3 m/s 753 mmHg 69%
    15:00 +30°C° 0,2 mm 3 m/s 753 mmHg 72%
    16:00 +30°C° 0,2 mm 3 m/s 753 mmHg 76%
    17:00 +29°C° 0,2 mm 3 m/s 753 mmHg 79%
    18:00 +28°C° 0 mm 2 m/s 754 mmHg 83%
    19:00 +27°C° 0 mm 2 m/s 755 mmHg 86%
    20:00 +26°C° 0 mm 2 m/s 755 mmHg 90%
    21:00 +26°C° 0 mm 2 m/s 755 mmHg 91%
    22:00 +26°C° 0 mm 2 m/s 755 mmHg 91%
    23:00 +26°C° 0 mm 2 m/s 755 mmHg 92%

    20 Dezembro, Quarta-feira

    Tempo Temperatura Precipitação Vento Pressão Humidade
    00:00 +26°C° 0 mm 2 m/s 754 mmHg 93%
    01:00 +25°C° 0 mm 2 m/s 754 mmHg 94%
    02:00 +25°C° 0 mm 2 m/s 754 mmHg 94%
    03:00 +25°C° 0 mm 2 m/s 754 mmHg 95%
    04:00 +25°C° 0 mm 2 m/s 754 mmHg 95%
    05:00 +25°C° 0 mm 2 m/s 754 mmHg 95%
    06:00 +26°C° 0,1 mm 2 m/s 755 mmHg 90%
    07:00 +28°C° 0,1 mm 2 m/s 755 mmHg 85%
    08:00 +29°C° 0,1 mm 2 m/s 756 mmHg 80%
    09:00 +30°C° 0,4 mm 2 m/s 755 mmHg 77%
    10:00 +31°C° 0,4 mm 2 m/s 755 mmHg 73%
    11:00 +31°C° 0,4 mm 2 m/s 755 mmHg 70%
    12:00 +31°C° 0,6 mm 3 m/s 755 mmHg 71%
    13:00 +31°C° 0,6 mm 3 m/s 754 mmHg 72%
    14:00 +31°C° 0,6 mm 3 m/s 753 mmHg 74%
    15:00 +30°C° 0,3 mm 3 m/s 753 mmHg 77%
    16:00 +29°C° 0,3 mm 3 m/s 754 mmHg 80%
    17:00 +29°C° 0,3 mm 3 m/s 754 mmHg 84%
    18:00 +28°C° 0 mm 2 m/s 754 mmHg 87%
    19:00 +27°C° 0 mm 2 m/s 755 mmHg 90%
    20:00 +26°C° 0 mm 2 m/s 755 mmHg 93%
    21:00 +26°C° 0 mm 2 m/s 755 mmHg 93%
    22:00 +26°C° 0 mm 2 m/s 755 mmHg 94%
    23:00 +26°C° 0 mm 2 m/s 755 mmHg 94%
    Mostrar mais